Location: *
(42.3442°N, 9.2072°E)
Time: 09:08:36
(UTC+00:00)

Cosmos 1174 - Pass Details

Date: 17 August 2020
Orbit: 363 x 1155 km, 66.1° (Epoch: 22 September)

Event Time Altitude Azimuth Distance (km) Brightness Sun altitude
Exits shadow 03:52:14 - 228° (SW) 1,935 6.0 -7.8°
Reaches altitude 10° 03:52:26 10° 229° (SW) 1,861 5.9 -7.7°
Maximum altitude 03:56:32 54° 307° (NW) 811 4.5 -7.0°
Drops below altitude 10° 04:01:48 10° 25° (NNE) 2,370 7.9 -6.2°
Sets 04:04:36 0° 30° (NNE) 3,449 8.9 -5.7°
